Temp
27 27 28 30 30 27 23 21 23 22 18 16 16 15 14 14 14 14 12 11 10 9 9 8 8 9 9 11 12 12 13 14 15 16 18 18 19 19 19 19 19 20 20 18 20 19 19 19 19
29 28 32 32 28 26 21 23 21 20 16 17 17 15 14 12 13 13 12 10 10 9 9 9 10 10 8 10 11 11 12 13 14 16 16 17 18 19 19 19 19 19 19 19 19 19 19 19 19
27 29 33 29 25 24 22 22 20 20 20 20 17 19 18 16 15 14 12 11 11 11 10 10 9 11 9 10 10 11 11 12 13 14 15 16 17 18 19 19 18 19 19 19 18 19 19 19 19
28 33 31 27 24 24 23 25 25 25 24 23 21 17 17 15 15 13 13 13 13 12 11 11 11 9 11 10 10 10 10 11 11 12 14 15 16 17 17 18 17 18 18 18 18 18 18 19 18
33 32 27 25 24 25 25 26 25 24 23 23 22 18 16 16 15 14 14 14 13 13 12 11 12 11 10 11 11 10 10 10 10 11 13 14 15 17 17 17 17 17 17 17 18 18 18 19 19
32 31 26 24 23 24 25 25 24 23 23 23 21 19 17 16 16 16 16 15 14 13 12 12 11 11 12 11 12 11 10 10 9 10 11 12 14 16 16 16 17 17 17 16 17 17 17 18 19
32 30 26 25 23 23 23 24 24 23 22 21 23 19 18 17 17 17 17 16 15 14 13 12 11 11 12 13 12 11 11 10 11 9 10 11 12 15 16 16 16 16 16 16 17 17 17 17 18
32 30 27 26 23 21 23 22 22 22 20 22 21 19 17 17 17 17 17 17 16 14 13 12 11 11 11 13 12 12 11 12 11 11 10 12 11 12 15 15 16 16 16 16 17 16 16 17 18
33 29 27 26 24 22 23 21 21 22 20 19 18 17 17 17 18 18 18 17 16 15 13 12 11 11 11 12 12 12 12 11 11 11 10 11 11 10 12 13 15 16 17 16 17 17 17 17 18
30 26 24 25 24 23 23 22 22 22 21 20 19 18 18 18 18 18 18 17 16 15 13 12 11 10 10 11 11 11 11 11 11 10 10 9 9 9 10 11 14 16 16 16 17 17 17 17 18
27 24 24 24 24 24 22 21 22 22 20 19 18 18 18 18 18 18 17 17 16 15 13 12 11 10 10 10 10 10 11 11 11 10 9 8 8 8 9 10 12 14 16 16 17 17 17 17 18
24 24 23 23 23 23 22 21 20 20 19 19 18 18 18 18 18 17 17 16 15 15 13 12 11 10 9 10 9 10 10 11 10 11 9 7 7 7 8 9 10 12 13 15 16 17 17 17 18
23 22 22 22 22 21 22 20 19 18 19 18 18 17 18 18 17 17 16 16 15 14 13 12 11 10 9 9 9 9 10 10 10 11 9 7 6 6 7 8 8 10 11 14 16 17 17 18 18
23 22 22 21 21 20 21 19 19 19 18 18 18 18 18 18 17 17 16 15 14 14 14 12 11 10 9 9 9 9 10 10 10 11 9 7 6 6 6 7 7 8 10 12 14 16 17 18 17
23 21 22 22 21 20 20 20 20 19 18 18 19 19 19 18 18 17 16 15 15 14 14 12 12 11 9 9 9 9 9 9 10 10 10 8 7 6 5 6 6 7 9 10 13 15 15 16 17
23 24 23 22 22 19 20 21 20 20 19 19 20 20 20 19 19 18 17 16 16 15 14 13 12 10 9 9 9 9 9 9 10 10 10 8 7 6 6 5 6 7 7 8 10 13 14 15 16
26 26 25 21 22 21 21 22 21 20 20 19 20 20 20 19 19 19 18 17 16 15 14 13 12 11 9 9 9 9 9 9 9 9 10 8 7 6 6 5 5 6 7 7 9 12 13 15 15
23 24 25 24 22 22 22 23 23 22 20 20 20 20 20 19 19 18 18 17 16 15 14 13 12 10 9 9 9 8 8 9 9 9 9 9 7 7 6 6 5 5 6 6 7 9 12 14 15
24 25 24 24 21 20 22 23 24 23 22 21 20 20 19 19 19 18 17 16 15 15 14 13 11 9 8 8 8 8 8 8 8 9 9 9 8 7 6 5 5 5 6 6 6 8 11 12 15
24 23 22 23 22 21 22 22 23 22 21 20 20 20 19 19 19 17 16 15 14 14 14 13 11 9 8 8 8 7 7 7 8 8 8 9 8 7 6 5 5 5 5 5 6 7 8 10 14
22 20 20 21 22 23 22 23 22 21 22 21 21 20 19 18 17 17 16 14 14 13 12 12 9 8 7 7 7 7 7 7 8 8 8 9 9 7 6 5 5 5 5 5 5 6 7 8 13
23 20 20 21 22 22 22 21 22 22 21 22 20 19 18 18 17 16 15 14 13 12 12 10 8 7 7 7 7 6 7 6 7 7 7 7 5 6 5 5 5 5 4 4 5 5 6 8 8
21 20 20 21 21 22 23 23 22 22 20 20 19 19 18 17 16 15 14 13 13 12 11 9 8 7 6 6 7 6 6 6 6 6 6 6 5 6 5 5 5 5 4 4 5 5 6 7 8
21 22 22 21 21 20 22 21 21 20 19 19 19 18 18 17 16 15 14 13 12 11 10 9 7 7 7 7 7 6 6 6 6 5 5 5 4 5 5 4 5 4 4 4 5 5 6 7 8
23 22 24 22 21 20 19 20 19 20 20 19 19 19 18 17 16 15 13 12 11 10 10 9 8 8 7 7 6 6 5 5 5 5 4 4 4 4 4 4 4 4 4 4 4 5 6 7 8
21 21 19 18 20 20 20 18 19 20 21 21 20 19 18 17 16 15 13 12 11 10 9 8 8 7 7 6 6 5 5 5 5 5 4 4 3 3 4 4 5 4 4 4 4 5 6 7 8
20 20 20 18 20 19 23 20 20 22 21 20 19 18 17 17 16 15 13 12 10 10 9 8 7 7 7 6 6 6 5 4 4 4 4 4 3 3 4 4 4 4 4 3 4 5 5 6 8
20 19 19 19 18 18 21 21 20 20 19 19 18 18 17 17 16 15 13 12 10 10 9 8 7 7 7 6 5 5 4 4 4 4 3 4 3 3 4 4 4 3 3 3 4 5 5 6 8
20 21 19 18 19 18 18 20 19 19 19 18 18 18 17 16 15 15 13 12 11 10 9 8 7 7 6 6 5 4 4 3 4 4 3 3 3 3 4 4 4 3 3 3 4 4 5 5 7
20 20 20 18 19 19 19 16 22 20 19 19 18 18 17 16 15 15 13 12 11 10 10 9 7 7 6 6 5 4 4 4 4 3 2 3 3 3 4 4 4 3 2 2 3 4 4 4 5
Height
755 751 747 746 765 786 819 829 816 822 835 851 846 845 857 862 866 876 876 874 871 867 864 858 853 850 844 841 839 836 832 827 823 819 818 818 819 818 818 819 820 821 823 822 823 824 825 825 827
752 748 744 742 776 798 832 820 827 833 844 846 848 853 859 871 870 873 874 873 869 868 865 861 860 853 847 842 841 840 837 831 826 822 820 818 818 818 819 820 821 821 823 823 825 826 826 826 828
751 746 741 764 800 816 831 826 833 835 836 836 849 848 853 866 871 872 873 871 867 866 865 866 857 848 844 846 849 843 840 835 829 825 822 821 819 818 819 819 822 824 824 825 825 826 827 828 829
752 745 759 789 814 818 822 813 815 818 823 827 837 855 864 871 871 874 874 873 871 868 867 863 859 853 857 857 850 843 843 838 832 829 825 822 821 820 820 819 819 822 825 825 825 826 828 830 832
749 757 794 811 820 817 814 813 816 826 832 834 834 858 865 871 872 874 872 871 871 870 869 866 859 863 860 860 846 847 846 839 835 830 826 824 822 821 820 819 820 822 826 827 827 828 829 833 834
754 764 803 824 827 825 821 819 824 831 834 835 842 854 866 871 872 872 871 870 870 869 867 865 865 863 857 856 847 851 848 840 835 831 827 825 824 822 819 815 822 822 824 826 827 829 829 834 834
752 773 806 817 829 833 834 826 830 836 842 847 839 855 865 870 871 870 869 868 868 868 867 864 862 857 853 850 847 851 850 842 837 833 829 827 825 823 822 821 821 823 823 823 826 829 830 834 835
757 778 803 809 830 843 837 837 839 841 852 848 846 854 867 870 869 868 868 868 867 867 867 866 863 861 858 854 851 853 848 843 839 835 830 826 825 825 822 821 820 821 822 823 825 826 825 833 835
754 786 805 812 822 839 835 844 846 849 855 859 861 866 868 868 867 867 866 866 867 867 867 867 864 863 861 859 858 855 848 847 840 836 831 827 825 826 823 822 820 819 819 820 823 824 826 831 833
770 805 821 816 823 833 835 843 846 846 851 856 861 865 866 866 865 865 864 864 866 866 867 867 865 863 861 859 856 854 853 849 842 838 835 828 827 829 825 822 819 819 817 817 821 822 826 830 831
793 819 823 826 826 832 842 846 843 846 854 861 862 863 865 864 864 864 865 865 866 866 866 867 867 865 863 861 858 856 853 851 847 843 837 830 833 831 826 823 819 818 817 817 821 822 825 828 830
818 824 830 834 833 836 844 847 854 853 861 862 865 867 865 866 864 864 864 865 865 866 865 867 867 865 865 863 861 858 855 852 850 847 840 839 838 831 826 823 821 817 818 817 820 823 824 827 828
830 836 838 840 843 846 844 852 855 861 862 864 866 866 865 864 864 864 864 864 865 865 864 864 866 865 865 864 862 860 856 853 850 847 841 840 839 833 830 824 821 819 818 817 817 820 823 825 826
832 837 842 845 848 848 849 856 857 859 863 863 863 861 860 861 862 862 861 862 865 863 863 862 864 864 863 864 863 861 857 853 850 847 843 841 839 836 831 825 822 820 817 815 815 817 819 822 824
833 842 840 843 847 851 850 854 851 855 860 858 857 855 855 857 857 856 857 858 859 859 859 859 861 861 861 862 861 859 857 852 849 846 843 838 837 835 830 827 824 819 816 814 814 814 817 820 821
830 830 835 843 842 851 853 846 848 851 853 853 851 850 849 849 850 852 852 853 853 854 855 855 856 858 858 860 859 857 856 852 848 845 842 838 837 835 832 829 824 819 817 816 815 811 814 816 816
820 824 827 845 840 843 846 843 841 846 850 851 849 847 846 846 847 846 846 846 846 847 849 851 852 854 855 857 857 855 855 851 848 844 841 838 836 834 831 828 824 821 817 815 813 810 813 814 811
839 832 824 834 841 841 842 836 831 837 844 846 845 842 844 845 845 846 845 843 842 842 844 847 849 851 853 855 853 852 853 850 847 844 840 837 835 834 832 829 825 820 816 815 813 809 808 812 810
830 828 830 829 841 847 836 834 827 830 836 840 840 843 845 842 843 842 843 842 842 839 840 842 845 848 852 856 853 850 850 849 846 843 839 837 833 831 830 827 824 820 815 816 814 811 808 807 811
835 840 842 833 839 845 834 836 827 831 839 842 843 842 840 838 837 839 841 842 842 841 840 840 841 844 853 850 851 849 850 848 844 841 838 836 833 829 829 826 824 820 816 817 812 808 808 808 808
843 855 852 848 837 829 833 825 831 835 833 834 835 836 838 838 838 839 841 842 842 842 841 842 843 846 854 852 846 847 848 845 843 839 836 834 831 828 828 826 824 820 818 817 812 810 811 812 805
839 852 850 844 841 842 833 846 833 833 835 832 834 837 839 839 839 841 842 843 843 843 843 842 844 846 850 848 846 847 846 846 842 839 835 834 832 829 828 827 825 823 821 816 811 809 809 807 806
849 849 850 847 845 839 831 832 830 827 839 837 837 837 837 838 840 840 842 843 843 842 843 843 845 847 852 846 845 846 845 843 841 839 836 834 833 831 828 827 825 822 821 817 812 809 807 807 808
843 839 834 840 842 849 838 842 837 841 842 840 838 836 835 836 838 841 842 842 842 842 843 844 844 845 845 844 845 846 844 842 840 838 836 833 832 830 827 826 824 822 819 814 810 809 805 805 803
838 834 829 842 846 848 846 845 843 837 837 836 835 833 834 835 837 839 840 842 843 843 843 843 843 843 843 843 844 843 843 842 840 838 835 833 830 828 827 824 822 820 818 816 814 810 807 806 801
851 851 865 874 854 848 843 855 844 833 830 828 830 832 833 834 835 836 839 842 844 844 843 843 844 843 842 842 842 842 842 841 838 837 835 833 832 829 826 824 821 819 818 816 814 810 808 801 799
855 860 860 869 850 858 825 835 832 823 827 829 832 832 833 833 833 835 837 839 842 843 843 843 844 843 842 841 841 840 840 840 838 836 834 833 831 828 826 823 821 819 817 814 812 809 805 805 800
859 861 866 863 871 866 835 830 833 832 833 831 831 830 831 831 832 834 835 838 840 841 842 843 843 842 842 841 841 840 839 839 838 836 834 832 831 829 826 823 821 818 816 813 811 808 804 801 797
857 853 860 864 862 867 862 840 831 833 833 833 829 826 828 831 832 833 835 838 840 841 842 842 842 842 841 840 840 840 839 837 837 836 835 834 832 830 827 823 821 819 817 814 811 807 806 800 795
852 854 853 869 859 859 855 857 818 826 830 828 828 825 827 828 831 832 834 836 837 839 840 840 841 842 842 841 840 840 839 838 836 836 836 834 832 830 828 825 823 820 819 817 814 809 806 801 799
Wind_Speed
12 15 15 15 5 10 14 7 9 10 5 9 12 13 14 9 6 5 11 14 18 21 28 32 32 34 34 35 35 35 33 31 28 22 14 7 5 1 2 2 4 5 7 10 11 12 13 12 13
9 16 17 6 7 9 8 11 15 11 10 12 9 9 7 5 4 2 4 15 16 17 25 27 25 30 32 35 35 34 33 31 29 20 19 14 5 2 5 7 4 5 6 9 10 10 11 13 14
19 16 5 7 10 9 8 9 11 10 13 5 5 7 5 4 8 3 4 9 17 20 24 22 26 33 36 34 32 32 32 31 30 29 22 16 12 3 9 10 5 5 6 6 7 9 10 13 15
12 10 10 16 22 17 13 11 14 15 14 9 12 11 9 7 3 4 6 9 11 16 21 23 24 26 26 27 30 33 32 31 29 29 27 22 13 2 9 10 10 8 14 9 8 7 7 13 15
5 13 14 17 21 19 16 15 12 12 10 14 9 8 8 8 6 4 3 7 13 16 18 22 24 23 20 21 30 32 32 31 30 29 30 22 16 11 5 9 11 10 16 14 12 9 6 12 14
8 10 14 15 19 16 14 12 15 14 12 9 16 13 8 9 7 5 6 9 14 17 19 23 22 22 21 23 29 30 31 36 29 30 29 27 18 9 8 6 11 13 12 20 13 9 11 12 14
13 13 17 18 16 13 12 12 11 11 12 11 6 12 9 11 7 6 5 9 13 16 19 21 26 29 28 25 28 28 29 33 32 28 29 25 22 9 6 6 4 6 13 16 17 12 16 14 14
13 13 19 15 14 15 10 13 13 12 10 10 17 7 7 7 6 7 8 9 13 18 21 21 24 26 28 25 26 24 24 33 32 30 28 20 19 20 7 7 5 4 11 21 17 16 15 19 17
14 11 11 13 13 11 12 13 12 12 12 15 11 11 7 4 6 7 8 10 12 16 19 22 23 26 27 22 24 23 28 23 35 35 27 25 20 21 16 12 8 9 10 20 19 10 21 21 18
16 13 14 15 15 11 13 11 6 6 9 9 9 8 4 5 5 8 10 10 13 14 17 21 22 26 27 25 25 25 24 25 30 31 32 26 25 19 16 12 8 4 5 14 14 15 20 21 20
21 17 16 14 13 14 11 9 3 1 9 7 5 4 4 6 7 8 10 12 12 13 15 18 21 24 26 26 25 26 24 22 24 25 30 28 25 23 18 15 14 7 2 5 10 16 19 19 21
23 17 15 12 9 9 10 8 7 10 7 5 4 5 4 7 8 10 10 11 12 13 12 15 18 22 25 26 26 25 24 20 21 19 21 26 26 25 24 19 16 12 8 4 12 17 19 18 22
17 15 14 12 11 8 5 6 7 6 4 2 1 4 5 5 10 10 9 9 13 11 10 13 16 19 22 27 24 25 23 21 23 17 18 21 25 25 25 21 16 14 10 7 7 15 18 22 21
13 14 12 10 10 3 5 5 4 7 3 4 5 6 6 5 9 10 9 9 10 12 10 10 13 14 17 22 27 27 24 21 23 17 14 15 20 22 24 23 19 15 13 11 9 12 11 19 21
16 14 12 8 3 5 4 9 4 7 5 6 7 7 7 9 10 11 9 7 9 13 10 7 11 13 14 18 21 24 24 21 22 18 15 15 19 21 22 23 21 18 16 13 10 14 12 12 23
12 11 6 7 3 5 4 10 9 7 7 6 7 8 8 9 11 12 12 13 12 11 9 9 9 9 11 15 18 20 22 21 21 18 15 14 19 17 21 22 21 22 17 15 11 10 16 14 23
7 7 6 7 3 0 3 7 11 7 4 6 9 10 10 10 14 15 16 16 15 11 11 13 8 6 8 13 16 19 22 18 21 20 15 15 13 19 19 21 21 21 19 17 13 9 11 18 20
9 9 8 7 5 3 7 8 7 10 6 6 10 10 12 13 14 21 21 20 17 13 12 13 10 5 9 12 13 15 21 20 19 21 16 14 9 17 16 18 20 21 20 19 16 11 10 11 15
9 8 9 7 5 5 2 7 4 5 2 6 10 13 14 12 17 15 22 22 28 11 12 11 3 8 14 18 14 14 17 20 18 19 15 13 10 13 15 18 20 20 20 21 15 12 9 10 19
8 11 9 2 2 2 9 9 3 6 8 6 9 10 14 14 12 17 17 19 19 21 17 9 2 3 7 8 12 14 15 20 20 17 14 14 11 8 10 16 20 18 19 18 18 15 11 8 24
10 9 7 6 12 8 12 6 5 8 4 5 5 11 13 13 13 13 17 17 16 17 18 15 9 12 9 12 11 10 15 16 17 17 19 16 13 3 9 15 16 19 17 17 17 14 10 9 10
2 10 7 7 9 6 3 6 9 2 7 12 11 11 12 13 11 15 16 17 17 15 17 10 10 8 13 10 15 12 14 12 17 19 17 19 20 12 11 14 15 14 15 16 18 15 12 9 11
5 7 7 6 8 9 2 5 6 10 12 14 13 12 11 10 11 10 15 14 15 12 12 10 9 9 11 9 5 9 13 15 18 17 18 14 15 16 13 16 16 14 16 15 16 16 13 10 11
11 13 16 8 6 6 4 4 3 8 12 13 12 13 11 10 9 13 13 14 13 13 11 11 8 6 9 9 10 10 13 15 15 17 17 16 15 16 15 17 14 13 16 17 17 15 13 13 11
13 16 3 5 5 2 2 2 2 8 9 7 10 12 12 10 8 8 10 12 11 11 10 9 11 9 8 8 10 12 12 16 12 13 13 15 19 18 16 15 15 15 14 15 14 14 10 11 11
8 7 3 4 6 8 4 4 1 1 7 10 10 10 11 10 7 7 8 7 10 10 9 9 11 10 8 9 10 11 11 11 12 12 13 12 13 14 16 16 13 14 12 14 13 12 10 14 14
6 4 4 4 8 5 3 4 2 3 9 10 11 11 9 9 7 7 8 5 6 8 8 7 8 9 9 8 9 11 12 12 11 12 12 13 11 11 15 14 12 11 13 12 12 13 14 10 12
2 3 2 2 5 5 4 6 3 8 10 11 11 10 9 9 9 7 7 6 5 4 6 5 6 8 9 10 10 10 10 10 12 12 11 9 13 14 13 12 11 13 13 14 14 13 14 13 16
3 3 2 2 3 3 5 2 2 3 6 9 12 10 8 7 7 6 7 6 6 3 3 3 4 7 9 7 6 6 8 10 10 11 11 11 13 16 14 11 11 11 13 16 16 16 14 16 19
2 5 3 2 2 5 3 5 3 2 4 10 10 10 8 6 6 6 7 4 3 4 5 4 2 5 7 6 5 6 8 9 11 10 14 11 13 14 13 11 10 11 12 13 17 17 15 18 19
Wind_Direction
294 284 261 248 221 75 51 64 49 41 66 59 54 67 87 65 38 84 343 337 352 356 352 9 7 4 6 8 4 4 7 10 13 24 25 9 331 262 217 182 176 176 161 148 147 137 138 142 135
296 286 249 290 24 98 68 66 55 61 114 125 90 85 51 74 51 85 4 358 358 356 9 9 2 7 8 10 4 2 5 11 12 14 21 26 15 262 205 146 124 142 143 159 149 152 157 153 147
284 286 278 94 69 70 99 79 89 124 160 140 111 83 92 58 85 33 4 5 16 7 11 14 11 14 10 10 360 4 4 8 14 15 19 16 25 288 233 228 164 160 143 139 154 169 164 162 156
267 89 57 80 84 95 126 159 132 102 101 105 138 89 97 54 50 36 17 19 15 19 13 16 17 16 9 4 4 8 3 6 11 14 17 22 26 29 223 197 188 202 195 172 170 159 176 170 164
165 74 89 94 90 86 73 76 86 91 65 57 40 74 84 68 83 69 26 37 33 27 23 21 20 14 11 358 16 7 5 4 7 11 14 18 26 43 241 217 177 187 201 204 190 203 178 183 175
120 130 107 100 96 81 69 84 95 83 62 79 100 95 88 79 57 62 28 48 38 30 22 17 16 13 15 8 15 3 3 4 3 9 9 12 16 17 33 70 202 213 213 196 204 192 188 201 188
108 90 109 114 103 90 76 42 64 63 70 35 28 88 99 65 41 41 32 52 49 38 28 27 17 9 17 19 13 357 360 3 2 4 8 8 11 10 348 11 39 227 224 211 189 199 186 210 199
89 115 126 130 108 107 101 76 51 74 60 60 2 44 68 45 29 18 12 32 43 39 29 24 25 16 14 14 5 359 1 357 1 357 6 10 8 4 356 302 290 275 224 217 214 211 206 197 198
110 92 84 111 119 121 127 88 73 75 77 61 62 65 63 42 12 3 2 9 18 25 24 16 22 16 9 9 7 2 356 358 355 353 358 10 14 2 358 351 305 260 255 224 226 244 185 196 209
87 86 77 82 107 111 82 88 111 102 99 97 98 98 64 4 13 0 355 11 12 21 27 14 21 17 10 3 7 2 359 356 354 353 356 1 6 352 349 352 354 262 260 223 229 198 188 204 208
82 98 94 77 92 96 108 81 11 46 93 56 55 41 19 345 359 353 360 1 6 12 31 15 10 18 12 2 5 357 353 357 357 347 351 359 353 1 357 351 357 4 173 227 201 187 200 208 206
91 88 92 89 82 79 85 83 72 56 80 75 69 349 332 337 350 345 359 349 6 354 22 20 9 18 10 2 3 352 346 352 350 347 357 356 349 353 359 354 349 354 347 238 206 203 208 207 212
91 95 93 87 77 86 109 62 118 112 106 138 26 253 303 323 329 337 334 343 348 342 354 28 8 16 11 358 359 346 341 345 340 345 346 356 354 349 352 356 351 345 331 311 219 197 215 206 208
118 110 108 108 97 77 133 120 261 126 170 216 241 281 291 312 311 307 316 346 327 321 330 24 2 6 8 1 355 340 336 338 333 338 345 355 353 342 348 354 353 342 337 321 276 230 214 212 209
131 130 133 112 90 110 336 186 185 120 188 259 265 268 300 304 297 304 307 298 300 305 321 10 338 354 3 359 348 337 332 336 323 330 339 344 357 345 344 352 353 350 340 328 297 245 238 231 209
174 186 162 118 193 130 214 97 124 163 211 269 311 308 294 283 291 290 286 287 285 294 323 331 327 341 357 349 340 333 320 330 321 330 329 351 348 350 346 344 347 353 346 335 309 250 249 261 193
194 49 39 132 86 253 222 339 143 168 228 282 306 319 311 305 305 308 307 296 285 290 307 301 304 326 348 337 333 340 327 327 329 327 326 350 345 350 343 345 346 351 353 347 328 289 268 254 178
18 6 15 66 92 333 285 280 143 167 198 280 288 309 339 335 334 331 317 318 308 280 282 284 290 318 349 328 337 337 328 330 328 320 320 344 337 345 349 340 342 350 358 349 344 327 289 269 156
14 348 22 52 65 324 310 299 294 110 270 306 322 334 318 317 326 342 341 338 339 306 281 278 307 26 2 324 343 343 331 325 321 318 321 322 336 341 357 341 346 350 1 346 349 344 327 277 177
29 11 3 146 161 270 313 306 284 62 15 325 305 304 344 338 340 349 347 348 338 338 323 316 223 7 330 312 329 348 327 310 311 313 330 318 341 341 7 349 351 349 355 348 354 4 354 294 199
73 12 329 317 314 255 306 233 194 128 271 223 355 2 347 343 348 352 351 349 344 347 1 357 60 34 338 344 342 344 324 322 323 337 319 339 325 41 3 3 352 349 346 345 357 3 355 318 232
29 5 309 303 327 353 31 329 108 66 320 2 14 7 346 345 352 348 355 352 349 354 344 51 18 23 326 347 358 345 319 320 322 327 344 347 26 33 20 6 354 350 344 345 360 1 342 338 313
3 317 301 317 306 296 144 325 117 43 351 355 354 341 341 354 352 2 357 348 338 358 21 45 38 28 318 327 334 326 331 325 327 329 334 337 357 351 9 1 353 348 340 351 358 354 355 336 294
289 272 236 230 252 244 7 23 303 14 356 335 340 328 346 349 356 7 357 351 358 1 9 8 21 333 327 348 337 326 330 331 331 342 337 352 344 347 351 349 350 350 341 349 355 353 359 337 322
343 342 49 222 209 11 341 322 62 6 340 326 331 348 351 357 13 352 359 355 353 3 0 358 12 348 334 339 343 343 337 327 328 335 350 344 344 336 332 337 343 345 344 336 349 355 355 353 339
321 345 32 301 342 313 185 234 334 185 280 10 349 358 352 354 4 0 11 354 352 353 2 11 360 351 355 13 0 341 331 323 342 333 334 331 330 326 334 342 345 347 344 337 351 3 5 18 4
348 33 345 277 255 266 232 137 151 202 9 0 354 357 354 347 355 14 0 25 356 351 352 23 1 339 358 1 348 346 2 358 338 331 337 343 339 335 341 354 355 354 353 353 2 13 21 24 20
339 335 229 228 316 317 328 305 34 4 348 350 343 353 350 355 351 0 3 18 12 354 337 13 345 350 358 7 16 6 354 342 332 340 349 341 347 353 346 356 6 4 8 10 22 21 30 40 31
185 205 201 234 263 306 314 310 249 315 347 336 346 350 354 350 341 354 2 13 348 335 312 335 11 337 18 356 16 11 359 342 346 356 359 10 6 4 356 3 9 16 16 22 27 33 25 43 42
308 303 271 287 58 282 267 272 255 198 302 4 345 343 349 340 348 351 343 328 290 328 318 344 30 344 10 355 27 26 1 357 13 10 2 17 12 0 1 8 18 28 20 28 28 31 28 43 45